| time (UTC) | temp F | wind direction | speed MPH | gust MPH | rain 1hr in | rain 24hr in | rain mn in | humidity % | barometer mb |
| 20260505124128 | 45 | 301 | 2.0 | 0.0 | 0.00 | 0.00 | 0.00 | 69 | 1013.5 |
| 20260505123124 | 46 | 317 | 0.0 | 0.0 | 0.00 | 0.00 | 0.00 | 70 | 1013.5 |
| 20260505122122 | 45 | 326 | 1.0 | 0.0 | 0.00 | 0.00 | 0.00 | 71 | 1013.5 |
| 20260505121119 | 45 | 4 | 1.0 | 0.0 | 0.00 | 0.00 | 0.00 | 71 | 1013.4 |
| 20260505120116 | 45 | 14 | 0.0 | 0.0 | 0.00 | 0.00 | 0.00 | 72 | 1013.4 |
| 20260505115114 | 45 | 315 | 0.0 | 0.0 | 0.00 | 0.00 | 0.00 | 71 | 1013.4 |
| 20260505114111 | 46 | 335 | 2.0 | 0.0 | 0.00 | 0.00 | 0.00 | 70 | 1013.4 |
| 20260505113107 | 46 | 316 | 3.0 | 0.0 | 0.00 | 0.00 | 0.00 | 70 | 1013.4 |
| 20260505112104 | 45 | 321 | 0.0 | 0.0 | 0.00 | 0.00 | 0.00 | 71 | 1013.4 |
| 20260505111102 | 46 | 331 | 1.0 | 0.0 | 0.00 | 0.00 | 0.00 | 69 | 1013.3 |
| 20260505102130 | 47 | 324 | 5.0 | 0.0 | 0.00 | 0.00 | 0.00 | 66 | 1013.2 |
| 20260505102046 | 47 | 324 | 5.0 | 0.0 | 0.00 | 0.00 | 0.00 | 66 | 1013.2 |
| 20260505101044 | 47 | 316 | 5.0 | 0.0 | 0.00 | 0.00 | 0.00 | 66 | 1013.1 |
| 20260505100040 | 47 | 10 | 4.0 | 0.0 | 0.00 | 0.00 | 0.00 | 66 | 1013.0 |
| 20260505095039 | 47 | 326 | 1.0 | 0.0 | 0.00 | 0.00 | 0.00 | 65 | 1013.0 |
| 20260505094035 | 47 | 342 | 5.0 | 0.0 | 0.00 | 0.00 | 0.00 | 65 | 1013.0 |
| 20260505093031 | 47 | 324 | 0.0 | 0.0 | 0.00 | 0.00 | 0.00 | 65 | 1013.1 |
| 20260505092029 | 48 | 307 | 0.0 | 0.0 | 0.00 | 0.00 | 0.00 | 64 | 1013.1 |
| 20260505091026 | 48 | 300 | 0.0 | 0.0 | 0.00 | 0.00 | 0.00 | 63 | 1013.1 |
| 20260505090023 | 48 | 332 | 0.0 | 0.0 | 0.00 | 0.00 | 0.00 | 63 | 1013.1 |
| 20260505085021 | 49 | 320 | 0.0 | 0.0 | 0.00 | 0.00 | 0.00 | 62 | 1013.1 |
| 20260505084017 | 49 | 305 | 1.0 | 0.0 | 0.00 | 0.00 | 0.00 | 62 | 1013.3 |
| 20260505082010 | 48 | 318 | 4.0 | 0.0 | 0.00 | 0.00 | 0.00 | 62 | 1013.2 |
| 20260505081007 | 49 | 325 | 4.0 | 0.0 | 0.00 | 0.00 | 0.00 | 61 | 1013.4 |
| 20260505080004 | 50 | 316 | 4.0 | 0.0 | 0.00 | 0.00 | 0.00 | 59 | 1013.2 |
| 20260505075001 | 50 | 297 | 0.0 | 0.0 | 0.00 | 0.00 | 0.00 | 59 | 1013.1 |
| 20260505073959 | 50 | 318 | 0.0 | 0.0 | 0.00 | 0.00 | 0.00 | 59 | 1013.3 |
| 20260505072955 | 50 | 312 | 1.0 | 0.0 | 0.00 | 0.00 | 0.00 | 58 | 1013.2 |
| 20260505071952 | 49 | 332 | 1.0 | 0.0 | 0.00 | 0.00 | 0.00 | 60 | 1013.1 |
| 20260505070950 | 50 | 314 | 4.0 | 0.0 | 0.00 | 0.00 | 0.00 | 59 | 1013.1 |
| 20260505065947 | 49 | 322 | 2.0 | 0.0 | 0.00 | 0.00 | 0.00 | 59 | 1013.1 |
| 20260505064944 | 50 | 320 | 3.0 | 0.0 | 0.00 | 0.00 | 0.00 | 58 | 1013.1 |
| 20260505063941 | 50 | 308 | 3.0 | 0.0 | 0.00 | 0.00 | 0.00 | 58 | 1013.1 |
| 20260505062937 | 50 | 313 | 0.0 | 0.0 | 0.00 | 0.00 | 0.00 | 60 | 1013.1 |
| 20260505061934 | 50 | 327 | 1.0 | 0.0 | 0.00 | 0.00 | 0.00 | 60 | 1013.1 |
| 20260505060931 | 50 | 335 | 5.0 | 0.0 | 0.00 | 0.00 | 0.00 | 61 | 1013.1 |
| 20260505055928 | 50 | 336 | 4.0 | 0.0 | 0.00 | 0.00 | 0.00 | 61 | 1013.1 |
| 20260505054927 | 50 | 316 | 7.0 | 0.0 | 0.00 | 0.00 | 0.00 | 60 | 1013.0 |
| 20260505053923 | 50 | 293 | 6.0 | 0.0 | 0.00 | 0.00 | 0.00 | 62 | 1013.0 |
| 20260505052919 | 50 | 322 | 1.0 | 0.0 | 0.00 | 0.00 | 0.00 | 62 | 1013.1 |
| 20260505051916 | 49 | 306 | 1.0 | 0.0 | 0.00 | 0.00 | 0.00 | 63 | 1013.0 |
| 20260505050914 | 50 | 341 | 5.0 | 0.0 | 0.00 | 0.00 | 0.00 | 62 | 1013.2 |
| 20260505040855 | 51 | 326 | 7.0 | 0.0 | 0.00 | 0.00 | 0.00 | 58 | 1013.0 |
| 20260505035853 | 52 | 322 | 7.0 | 0.0 | 0.00 | 0.00 | 0.00 | 57 | 1013.0 |
| 20260505034851 | 52 | 312 | 8.0 | 0.0 | 0.00 | 0.00 | 0.00 | 56 | 1012.8 |
| 20260505033846 | 53 | 326 | 10.0 | 0.0 | 0.00 | 0.00 | 0.00 | 54 | 1012.7 |
| 20260505032842 | 53 | 308 | 10.0 | 0.0 | 0.00 | 0.00 | 0.00 | 53 | 1012.4 |
| 20260505031840 | 54 | 303 | 10.0 | 0.0 | 0.00 | 0.00 | 0.00 | 52 | 1012.3 |
| 20260505030837 | 53 | 322 | 9.0 | 0.0 | 0.00 | 0.00 | 0.00 | 52 | 1012.1 |
| 20260505025835 | 53 | 35 | 5.0 | 0.0 | 0.00 | 0.00 | 0.00 | 53 | 1012.1 |
| 20260505024832 | 53 | 322 | 0.0 | 0.0 | 0.00 | 0.00 | 0.00 | 52 | 1012.0 |
| 20260505023908 | 54 | 328 | 0.0 | 0.0 | 0.00 | 0.00 | 0.00 | 51 | 1012.0 |
| 20260505023829 | 54 | 328 | 0.0 | 0.0 | 0.00 | 0.00 | 0.00 | 51 | 1012.0 |
| 20260505022824 | 55 | 316 | 2.0 | 0.0 | 0.00 | 0.00 | 0.00 | 50 | 1011.8 |
| 20260505021822 | 55 | 318 | 0.0 | 0.0 | 0.00 | 0.00 | 0.00 | 48 | 1011.7 |
| 20260505020820 | 56 | 328 | 0.0 | 0.0 | 0.00 | 0.00 | 0.00 | 47 | 1011.6 |
| 20260505015817 | 57 | 324 | 3.0 | 0.0 | 0.00 | 0.00 | 0.00 | 46 | 1011.6 |
| 20260505014814 | 58 | 345 | 5.0 | 0.0 | 0.00 | 0.00 | 0.00 | 44 | 1011.6 |
| 20260505013811 | 58 | 327 | 4.0 | 0.0 | 0.00 | 0.00 | 0.00 | 43 | 1011.6 |
| 20260505012807 | 58 | 310 | 2.0 | 0.0 | 0.00 | 0.00 | 0.00 | 43 | 1011.6 |
| 20260505011845 | 58 | 330 | 3.0 | 0.0 | 0.00 | 0.00 | 0.00 | 39 | 1011.7 |
| 20260505011804 | 58 | 330 | 3.0 | 0.0 | 0.00 | 0.00 | 0.00 | 39 | 1011.7 |
| 20260505010801 | 59 | 320 | 7.0 | 0.0 | 0.00 | 0.00 | 0.00 | 39 | 1011.6 |
| 20260505005759 | 60 | 319 | 8.0 | 0.0 | 0.00 | 0.00 | 0.00 | 39 | 1011.6 |
| 20260505004756 | 60 | 326 | 6.0 | 0.0 | 0.00 | 0.00 | 0.00 | 41 | 1011.6 |
| 20260505003753 | 60 | 354 | 8.0 | 0.0 | 0.00 | 0.00 | 0.00 | 40 | 1011.6 |
| 20260505002749 | 60 | 10 | 8.0 | 0.0 | 0.00 | 0.00 | 0.00 | 41 | 1011.6 |
| 20260505001746 | 60 | 349 | 6.0 | 0.0 | 0.00 | 0.00 | 0.00 | 44 | 1011.6 |
| 20260505000743 | 59 | 337 | 9.0 | 0.0 | 0.00 | 0.00 | 0.00 | 45 | 1011.6 |
| 20260504235817 | 59 | 316 | 9.0 | 0.0 | 0.00 | 0.00 | 0.00 | 44 | 1011.7 |
| 20260504235741 | 59 | 316 | 9.0 | 0.0 | 0.00 | 0.00 | 0.00 | 44 | 1011.7 |
| 20260504234738 | 61 | 341 | 9.0 | 0.0 | 0.00 | 0.00 | 0.00 | 42 | 1011.6 |
| 20260504233735 | 61 | 305 | 6.0 | 0.0 | 0.00 | 0.00 | 0.00 | 42 | 1011.6 |
| 20260504232731 | 61 | 343 | 9.0 | 0.0 | 0.00 | 0.00 | 0.00 | 41 | 1011.6 |
| 20260504231729 | 60 | 326 | 9.0 | 0.0 | 0.00 | 0.00 | 0.00 | 41 | 1011.7 |
| 20260504230726 | 60 | 328 | 10.0 | 0.0 | 0.00 | 0.00 | 0.00 | 40 | 1011.8 |
| 20260504225723 | 62 | 345 | 2.0 | 0.0 | 0.00 | 0.00 | 0.00 | 40 | 1011.8 |
| 20260504224720 | 63 | 329 | 6.0 | 0.0 | 0.00 | 0.00 | 0.00 | 41 | 1011.9 |
| 20260504223717 | 61 | 354 | 3.0 | 0.0 | 0.00 | 0.00 | 0.00 | 40 | 1012.1 |
| 20260504222713 | 63 | 322 | 3.0 | 0.0 | 0.00 | 0.00 | 0.00 | 39 | 1012.1 |
| 20260504221710 | 62 | 303 | 11.0 | 0.0 | 0.00 | 0.00 | 0.00 | 38 | 1012.3 |
| 20260504220707 | 63 | 318 | 8.0 | 0.0 | 0.00 | 0.00 | 0.00 | 37 | 1012.4 |
| 20260504215704 | 62 | 299 | 4.0 | 0.0 | 0.00 | 0.00 | 0.00 | 36 | 1012.6 |
| 20260504214701 | 62 | 22 | 9.0 | 0.0 | 0.00 | 0.00 | 0.00 | 38 | 1012.6 |
| 20260504213657 | 62 | 302 | 9.0 | 0.0 | 0.00 | 0.00 | 0.00 | 37 | 1012.6 |
| 20260504212654 | 62 | 347 | 6.0 | 0.0 | 0.00 | 0.00 | 0.00 | 36 | 1012.7 |
| 20260504211755 | 62 | 283 | 8.0 | 0.0 | 0.00 | 0.00 | 0.00 | 35 | 1012.8 |
| 20260504211651 | 62 | 283 | 8.0 | 0.0 | 0.00 | 0.00 | 0.00 | 35 | 1012.8 |
| 20260504210725 | 62 | 268 | 5.0 | 0.0 | 0.00 | 0.00 | 0.00 | 36 | 1012.8 |
| 20260504210649 | 62 | 268 | 5.0 | 0.0 | 0.00 | 0.00 | 0.00 | 36 | 1012.8 |
| 20260504205646 | 62 | 305 | 6.0 | 0.0 | 0.00 | 0.00 | 0.00 | 36 | 1012.9 |
| 20260504204643 | 61 | 335 | 8.0 | 0.0 | 0.00 | 0.00 | 0.00 | 33 | 1012.9 |
| 20260504203640 | 62 | 347 | 5.0 | 0.0 | 0.00 | 0.00 | 0.00 | 30 | 1012.9 |
| 20260504202637 | 61 | 328 | 7.0 | 0.0 | 0.00 | 0.00 | 0.00 | 28 | 1013.0 |
| 20260504201634 | 61 | 330 | 9.0 | 0.0 | 0.00 | 0.00 | 0.00 | 26 | 1012.8 |
| 20260504200632 | 62 | 354 | 4.0 | 0.0 | 0.00 | 0.00 | 0.00 | 30 | 1012.9 |
| 20260504195629 | 61 | 318 | 6.0 | 0.0 | 0.00 | 0.00 | 0.00 | 34 | 1013.0 |
| 20260504193621 | 61 | 354 | 8.0 | 0.0 | 0.00 | 0.00 | 0.00 | 32 | 1013.1 |
| 20260504192618 | 61 | 4 | 8.0 | 0.0 | 0.00 | 0.00 | 0.00 | 37 | 1013.1 |
| 20260504191615 | 60 | 335 | 9.0 | 0.0 | 0.00 | 0.00 | 0.00 | 37 | 1013.2 |
| 20260504190614 | 60 | 299 | 5.0 | 0.0 | 0.00 | 0.00 | 0.00 | 36 | 1013.2 |
| 20260504185611 | 60 | 337 | 3.0 | 0.0 | 0.00 | 0.00 | 0.00 | 36 | 1013.3 |
| 20260504184608 | 60 | 21 | 8.0 | 0.0 | 0.00 | 0.00 | 0.00 | 39 | 1013.2 |
| 20260504183604 | 60 | 15 | 3.0 | 0.0 | 0.00 | 0.00 | 0.00 | 40 | 1013.2 |
| 20260504182601 | 60 | 316 | 2.0 | 0.0 | 0.00 | 0.00 | 0.00 | 38 | 1013.3 |
| 20260504181558 | 59 | 12 | 4.0 | 0.0 | 0.00 | 0.00 | 0.00 | 38 | 1013.3 |
| 20260504180555 | 59 | 331 | 5.0 | 0.0 | 0.00 | 0.00 | 0.00 | 39 | 1013.5 |
| 20260504175553 | 59 | 328 | 4.0 | 0.0 | 0.00 | 0.00 | 0.00 | 41 | 1013.4 |
| 20260504174550 | 59 | 354 | 4.0 | 0.0 | 0.00 | 0.00 | 0.00 | 42 | 1013.4 |
| 20260504173545 | 58 | 324 | 5.0 | 0.0 | 0.00 | 0.00 | 0.00 | 44 | 1013.4 |
| 20260504172543 | 58 | 330 | 7.0 | 0.0 | 0.00 | 0.00 | 0.00 | 43 | 1013.4 |
| 20260504170538 | 58 | 339 | 5.0 | 0.0 | 0.00 | 0.00 | 0.00 | 43 | 1013.3 |
| 20260504150501 | 54 | 295 | 1.0 | 0.0 | 0.00 | 0.00 | 0.00 | 43 | 1013.8 |
| 20260504140444 | 52 | 4 | 0.0 | 0.0 | 0.00 | 0.00 | 0.00 | 46 | 1013.6 |
| 20260504130426 | 50 | 327 | 1.0 | 0.0 | 0.00 | 0.00 | 0.00 | 46 | 1013.3 |